Flag for U.S.A. Weather past 2 weeks in Medford, Oregon, U.S.A.

Now
103 °F

Sunny.


Feels Like: 97 °F
Forecast: 65 / 107 °F
Wind: 7 mph from North

Location: Rogue Valley International Airport

Current Time: Jul 29, 2015 at 5:57:39 PM

Latest Report: Jul 29, 2015 at 4:53 PM


Visibility: 10 mi

Pressure: 29.88 "Hg

Humidity: 9%

Dew point: 33 °F

Location of MedfordLocation

Historic Weather in Medford — Graph

°F

Medford temperature yesterday

Maximum temperature yesterday: 96 °F (at 5:53 PM)
Minimum temperature yesterday: 55 °F (at 4:53 AM)
Average temperature yesterday: 75 °F

Past Weeks' High & Low Weather Summary

 TemperatureHumidityPressure
High103 °F (Jul 29, 3:53 PM)77% (Jul 27, 5:53 AM)30.16 "Hg (Jul 27, 5:53 AM)
Low53 °F (Jul 27, 5:53 AM)9% (Jul 29, 3:53 PM)29.72 "Hg (Jul 21, 4:53 PM)
Average76 °F40%29.96 "Hg
* Reported Jul 14 4:53 PM — Jul 29 4:53 PM, Medford, Weather by CustomWeather, © 2015

Note: Actual official high and low records may vary slightly from our data, if they occured in-between our weather recording intervals... More about our weather records

Advertising

Medford weather history for previous 24 hours

 ConditionsComfort  
Time TempWeatherWind HumidityBarometerVisibility
4:53 PM
Wed, Jul 29
103 °FSunny.7 mph9%29.88 "Hg10 mi
3:53 PM103 °FSunny.6 mph9%29.90 "Hg10 mi
2:53 PM100 °FSunny.6 mph11%29.93 "Hg10 mi
1:53 PM98 °FSunny.6 mph14%29.94 "Hg10 mi
12:53 PM93 °FSunny.3 mph17%29.97 "Hg10 mi
11:53 AM86 °FSunny.No wind21%30.00 "Hg10 mi
10:53 AM81 °FSunny.No wind28%30.02 "Hg10 mi
9:53 AM74 °FSunny.No wind38%30.04 "Hg10 mi
8:53 AM69 °FSunny.No wind45%30.05 "Hg10 mi
7:53 AM64 °FSunny.3 mph52%30.06 "Hg10 mi
6:53 AM62 °FClear.No wind60%30.05 "Hg10 mi
5:53 AM61 °FClear.No wind62%30.03 "Hg10 mi
4:53 AM61 °FClear.No wind62%30.03 "Hg10 mi
3:53 AM63 °FClear.No wind58%30.02 "Hg10 mi
2:53 AM64 °FClear.No wind58%30.02 "Hg10 mi
1:53 AM69 °FClear.No wind47%30.02 "Hg10 mi
12:53 AM71 °FClear.6 mph45%30.02 "Hg10 mi
11:53 PM
Tue, Jul 28
76 °FClear.No wind35%30.01 "Hg10 mi
10:53 PM79 °FClear.No wind32%30.01 "Hg10 mi
9:53 PM80 °FClear.5 mph31%29.99 "Hg10 mi
8:53 PM85 °FSunny.6 mph26%29.96 "Hg10 mi
7:53 PM90 °FSunny.10 mph21%29.94 "Hg10 mi
6:53 PM94 °FSunny.15 mph17%29.93 "Hg10 mi
5:53 PM96 °FSunny.7 mph11%29.93 "Hg10 mi
Weather by CustomWeather, © 2015

See weather overviewHow to use our weather pages